Regional Weather Roundup
Issued by NWS Sterling, VA

Home | Current Version | Previous Version | Graphics & Text | Print | Product List | Glossary On
Versions: 1 2 3 4 5 6 7 8 9 10 11 12 13 14 15 16 17 18 19 20 21 22 23 24 25 26 27 28 29 30 31 32 33 34 35 36 37 38 39 40 41 42 43 44 45 46 47 48 49 50
000
ASUS41 KLWX 302210
RWRLWX

REGIONAL WEATHER ROUNDUP
NATIONAL WEATHER SERVICE BALTIMORE MD/WASHINGTON DC
600 PM EDT SAT APR 30 2016

Note: "FAIR" indicates few or no clouds below 12,000 feet
with no significant weather and/or obstructions to visibility.
 TC=TEMPERATURE CELSIUS

 * =Non NWS site. Station does not report precipitation (e.g. rain,
    snow, etc.), thunder, or fog.

DCZ001-MDZ009-015-VAZ040>042-051-053>054-302300-
WASHINGTON METRO

CITY           SKY/WX    TMP DP  RH WIND       PRES   REMARKS
WASHINGTON NAT CLOUDY    57  48  72 S5        30.22R
DULLES         LGT RAIN  55  47  74 SE7       30.20R
ANDREWS AFB    CLOUDY    56  48  75 S3        30.21R
FT BELVOIR     CLOUDY    55  48  76 CALM      30.21R
QUANTICO       CLOUDY    58  48  69 SE7       30.22R
COLLEGE PARK*  CLOUDY    55  46  71 S3        30.22R
LEESBURG*      CLOUDY    57  50  77 SE3       30.21S
MANASSAS*      CLOUDY    55  48  76 SE5       30.21R
GAITHERSBURG*  CLOUDY    55  45  67 S6        30.25R

$$

MDZ006>007-011-014-302300-
BALTIMORE METRO

CITY           SKY/WX    TMP DP  RH WIND       PRES   REMARKS
BWI AIRPORT    CLOUDY    58  45  62 S5        30.20R
MD SCIENCE CTR   N/A     59  45  59 MISG      30.21R
MARTIN STATE   PTSUNNY   57  52  82 S6        30.23R
ANNAPOLIS      CLOUDY    56  48  74 MISG      30.22R
FORT MEADE*    CLOUDY    55  46  71 CALM      30.24R

$$

MDZ012-015-019>023-302300-
MARYLAND EASTERN SHORE

CITY           SKY/WX    TMP DP  RH WIND       PRES   REMARKS
OCEAN CITY     CLOUDY    51  44  77 E9        30.23S
SALISBURY      CLOUDY    56  46  69 E9        30.21R
CAMBRIDGE*     CLOUDY    55  46  71 CALM      30.21R
EASTON*        CLOUDY   N/A N/A N/A SE5       30.24R

$$

MDZ017>025-302300-
SOUTHERN MARYLAND

CITY           SKY/WX    TMP DP  RH WIND       PRES   REMARKS
PATUXENT RIVER CLOUDY    56  46  69 SE5       30.21R
ST INIGOES       N/A    N/A N/A N/A MISG        N/A
LEONARDTOWN*   CLOUDY    55  46  71 CALM      30.22S

$$

MDZ003>005-302300-
NORTH CENTRAL MARYLAND

CITY           SKY/WX    TMP DP  RH WIND       PRES   REMARKS
FREDERICK*     CLOUDY    55  50  82 S3        30.23R
HAGERSTOWN APT LGT RAIN  55  47  74 S8        30.18R
WESTMINSTER*   CLOUDY    55  54  94 S8        30.20R

$$

MDZ501>502-302300-
WESTERN MARYLAND

CITY           SKY/WX    TMP DP  RH WIND       PRES   REMARKS
OAKLAND*       FOG       46  46 100 SE16      30.11F VSB<1/4
CUMBERLAND*    CLOUDY    54  50  87 CALM      30.19S

$$

VAZ025>031-302300-
SHENANDOAH VALLEY

CITY           SKY/WX    TMP DP  RH WIND       PRES   REMARKS
WINCHESTER*    CLOUDY    54  50  87 E7        30.17S HAZE
FRONT ROYAL*   CLOUDY    54  52  94 CALM      30.15S
LURAY*         CLOUDY    55  54  94 CALM      30.15S
NEW MARKET*    CLOUDY    56  52  84 CALM      30.14S
STAUNTON*      CLOUDY    57  53  86 S5        30.18R
WAYNESBORO*    CLOUDY    53  50  92 MISG      30.16R

$$

WVZ021-048>050-054>055-302300-
EASTERN WEST VIRGINIA PANHANDLE

CITY           SKY/WX    TMP DP  RH WIND       PRES   REMARKS
MARTINSBURG    CLOUDY    53  47  79 E5        30.17F
PETERSBURG*    LGT RAIN  60  54  83 CALM      30.12S

$$

VAZ036>039-050-302300-
CENTRAL FOOTHILLS

CITY           SKY/WX    TMP DP  RH WIND       PRES   REMARKS
CHARLOTTESVILL CLOUDY    58  50  75 E3        30.16S
CULPEPER*      CLOUDY    57  51  79 SE3       30.20R
ORANGE*        CLOUDY    57  54  88 CALM      30.20R
GORDONSVILLE*  CLOUDY    57  52  83 CALM      30.17S
WARRENTON*     CLOUDY    56  47  70 E6        30.19S

$$

VAZ055>057-302300-
NORTH AND CENTRAL PIEDMONT

CITY           SKY/WX    TMP DP  RH WIND       PRES   REMARKS
FREDERICKSBRG* CLOUDY    57  51  80 E3        30.19S
STAFFORD*      CLOUDY    56  48  76 E5        30.24R

$$

NCZ024-NYZ072-PAZ021-071-VAZ022-071-302300-
OTHER REGIONAL OBSERVATIONS

CITY           SKY/WX    TMP DP  RH WIND       PRES   REMARKS
NEW YORK CITY  CLOUDY    57  32  38 S9        30.24R
PHILADELPHIA   CLOUDY    60  42  51 S8        30.22R
PITTSBURGH     LGT RAIN  66  45  46 S5        30.04S
ROANOKE        CLOUDY    56  53  90 SE7       30.16R
RICHMOND       CLOUDY    58  50  75 SE9       30.18S
RALEIGH        CLOUDY    63  57  81 E8        30.13R

$$

ANZ530>537-302300-
MARINE OBSERVATIONS

STATION/POSITION TIME  TEMP    WIND        PRES
                       AIR SEA DIR/SP/G
                 (UTC) (F)     (DEG/KT/KT) (MB)
THOMAS PT LIGHT  2200   55 57  210/  4/  5 1024.4R
BALT KEY BRIDGE  2100   57     110/  8/  9 1022.1F
COVE POINT       2100   55     180/  1/  2 1023.2R
LEWISETTA        2100   56 60  100/  5/  6 1022.5R
SOLOMONS ISLAND  2100   56 60  130/  4/  5   N/A
PINEY POINT      2112          140/  5/  6   N/A

$$




USA.gov is the U.S. government's official web portal to all federal, state and local government web resources and services.